Weather in Bochilovo

Russia / Republic of Karelia     61°51′02″N   36°14′27″E
temp.,
°C
wind,
m/s
gust,
m/s
humid.,
%
clouds,
%
prec.,
mm/h
press.,
hPa
HPBL,
m
1 march, mon
mon100:00−1sw3797100 0.1 1016309
03:000wsw4996100 0.1 1015397
06:000wsw51193100 0.0 1012730
09:00+1wsw51298100 0.1 1010460
12:00+1w51299100 0.0 1009484
15:00+1w513100100 0.3 1007547
18:00+1w61499100 0.4 1005751
21:00+1w51399100 0.6 1003650
2 march, tue
tue200:00+1wnw6148996 0.1 1002958
03:00−2wnw5149063 0.1 1002562
06:00−3wnw5149014 0.0 1002569
09:00−3wnw512908 0.0 1003606
12:00−1nw6119289 0.2 10031064
15:00−2nw6117993 0.4 10051295
18:00−5nw41289100 0.1 1008759
21:00−7nw4128971 0.1 1010474
3 march, wed
wed300:00−9wnw38900 0.0 1011172
03:00−9w379615 0.0 1011138
06:00−6w389794 0.1 1009287
09:00−5wnw4109696 0.4 1008537
12:00−3wnw489399 0.1 1008657
15:00−3wnw4894100 0.3 1007719
18:00−3w2794100 0.2 1004343
21:00−3ssw3797100 0.4 1001303
4 march, thu
thu400:00−3se4897100 1.1 995289
03:00−2nne1898100 7.7 992383
06:00−4n61291100 2.6 991646
09:00−6n4109298 2.7 993481
12:00−5n4889100 0.0 995695
15:00−5nnw4788100 0.1 997806
18:00−7nnw3992100 0.1 999454
21:00−11nnw239586 0.1 100146
5 march, fri
fri500:00−13nnw239661 0.0 100224
03:00−14n229477 0.0 100423
06:00−18n129378 0.0 100620
09:00−15n129679 0.1 1007114
12:00−11nnw248992 0.1 1009540
15:00−10nnw248796 0.1 1011740
18:00−14nnw2393100 0.1 101222
21:00−18nne129461 0.1 101420